• In Netherlands
  • List of Countries
  • For 7 days
  • Water Temperature
  • Satellite Maps
  • Weather Map
  • Weather Widgets
  • user-avatar
    Login

    Hourly Weather Djelfa

    Today, 26 March, Sunday

    Time Temperature Precipitation Wind Pressure Humidity
    00:00 +10°C° 0 mm 3 mps 665 mmHg 29%
    01:00 +10°C° 0 mm 3 mps 665 mmHg 29%
    02:00 +9°C° 0 mm 2 mps 664 mmHg 29%
    03:00 +9°C° 0 mm 2 mps 664 mmHg 29%
    04:00 +8°C° 0 mm 2 mps 664 mmHg 30%
    05:00 +8°C° 0 mm 2 mps 664 mmHg 31%
    06:00 +7°C° 0 mm 2 mps 663 mmHg 32%
    07:00 +10°C° 0 mm 2 mps 664 mmHg 28%
    08:00 +12°C° 0 mm 3 mps 665 mmHg 24%
    09:00 +14°C° 0 mm 3 mps 666 mmHg 19%
    10:00 +15°C° 0 mm 4 mps 666 mmHg 18%
    11:00 +18°C° 0 mm 4 mps 666 mmHg 18%
    12:00 +19°C° 0 mm 4 mps 666 mmHg 17%
    13:00 +19°C° 0 mm 4 mps 665 mmHg 17%
    14:00 +19°C° 0 mm 5 mps 665 mmHg 17%
    15:00 +20°C° 0 mm 5 mps 664 mmHg 17%
    16:00 +19°C° 0 mm 4 mps 664 mmHg 19%
    17:00 +18°C° 0 mm 4 mps 664 mmHg 21%
    18:00 +17°C° 0 mm 4 mps 664 mmHg 23%
    19:00 +15°C° 0 mm 4 mps 664 mmHg 25%
    20:00 +14°C° 0 mm 4 mps 664 mmHg 27%
    21:00 +13°C° 0 mm 4 mps 664 mmHg 29%
    22:00 +13°C° 0 mm 4 mps 664 mmHg 32%
    23:00 +12°C° 0 mm 4 mps 664 mmHg 35%

    Tomorrow, 27 March, Monday

    Time Temperature Precipitation Wind Pressure Humidity
    00:00 +11°C° 0 mm 3 mps 664 mmHg 39%
    01:00 +11°C° 0 mm 3 mps 664 mmHg 42%
    02:00 +11°C° 0 mm 3 mps 663 mmHg 45%
    03:00 +10°C° 0 mm 3 mps 663 mmHg 48%
    04:00 +10°C° 0 mm 3 mps 663 mmHg 50%
    05:00 +9°C° 0 mm 2 mps 664 mmHg 52%
    06:00 +9°C° 0 mm 2 mps 664 mmHg 53%
    07:00 +12°C° 0 mm 2 mps 665 mmHg 46%
    08:00 +13°C° 0 mm 3 mps 666 mmHg 40%
    09:00 +16°C° 0 mm 3 mps 667 mmHg 33%
    10:00 +17°C° 0 mm 3 mps 667 mmHg 29%
    11:00 +18°C° 0 mm 2 mps 667 mmHg 26%
    12:00 +19°C° 0 mm 2 mps 667 mmHg 23%
    13:00 +20°C° 0 mm 2 mps 667 mmHg 21%
    14:00 +20°C° 0 mm 2 mps 667 mmHg 20%
    15:00 +21°C° 0 mm 2 mps 666 mmHg 18%
    16:00 +20°C° 0 mm 2 mps 666 mmHg 21%
    17:00 +19°C° 0 mm 2 mps 666 mmHg 24%
    18:00 +18°C° 0 mm 3 mps 666 mmHg 27%
    19:00 +17°C° 0 mm 3 mps 666 mmHg 36%
    20:00 +14°C° 0 mm 4 mps 667 mmHg 46%
    21:00 +13°C° 0 mm 4 mps 667 mmHg 55%
    22:00 +12°C° 0 mm 4 mps 667 mmHg 61%
    23:00 +12°C° 0 mm 4 mps 667 mmHg 67%

    Day after tomorrow, 28 March, Tuesday

    Time Temperature Precipitation Wind Pressure Humidity
    00:00 +11°C° 0 mm 3 mps 667 mmHg 73%
    01:00 +10°C° 0 mm 3 mps 666 mmHg 75%
    02:00 +10°C° 0 mm 2 mps 666 mmHg 77%
    03:00 +9°C° 0 mm 2 mps 666 mmHg 80%
    04:00 +9°C° 0 mm 2 mps 666 mmHg 80%
    05:00 +8°C° 0 mm 2 mps 666 mmHg 81%
    06:00 +8°C° 0 mm 2 mps 666 mmHg 82%
    07:00 +10°C° 0 mm 2 mps 667 mmHg 70%
    08:00 +13°C° 0 mm 2 mps 668 mmHg 58%
    09:00 +15°C° 0 mm 2 mps 668 mmHg 46%
    10:00 +16°C° 0 mm 2 mps 668 mmHg 41%
    11:00 +17°C° 0 mm 2 mps 669 mmHg 36%
    12:00 +18°C° 0 mm 2 mps 669 mmHg 31%
    13:00 +19°C° 0.1 mm 2 mps 668 mmHg 29%
    14:00 +19°C° 0.1 mm 3 mps 668 mmHg 26%
    15:00 +20°C° 0.1 mm 4 mps 668 mmHg 24%
    16:00 +19°C° 0 mm 4 mps 668 mmHg 26%
    17:00 +17°C° 0 mm 5 mps 668 mmHg 28%
    18:00 +16°C° 0 mm 6 mps 668 mmHg 30%
    19:00 +14°C° 0 mm 5 mps 668 mmHg 39%
    20:00 +13°C° 0 mm 5 mps 668 mmHg 48%
    21:00 +11°C° 0 mm 4 mps 669 mmHg 56%
    22:00 +11°C° 0 mm 3 mps 669 mmHg 59%
    23:00 +10°C° 0 mm 3 mps 668 mmHg 61%

    29 March, Wednesday

    Time Temperature Precipitation Wind Pressure Humidity
    00:00 +9°C° 0 mm 2 mps 668 mmHg 64%
    01:00 +9°C° 0 mm 2 mps 668 mmHg 66%
    02:00 +8°C° 0 mm 2 mps 668 mmHg 67%
    03:00 +7°C° 0 mm 2 mps 667 mmHg 69%
    04:00 +7°C° 0 mm 2 mps 667 mmHg 71%
    05:00 +6°C° 0 mm 2 mps 667 mmHg 72%
    06:00 +6°C° 0 mm 2 mps 667 mmHg 73%
    07:00 +8°C° 0 mm 2 mps 668 mmHg 61%
    08:00 +10°C° 0 mm 3 mps 669 mmHg 49%
    09:00 +11°C° 0 mm 3 mps 670 mmHg 37%
    10:00 +13°C° 0 mm 3 mps 670 mmHg 32%
    11:00 +14°C° 0 mm 3 mps 669 mmHg 28%
    12:00 +16°C° 0 mm 2 mps 669 mmHg 24%
    13:00 +17°C° 0 mm 3 mps 669 mmHg 22%
    14:00 +17°C° 0 mm 3 mps 669 mmHg 20%
    15:00 +18°C° 0 mm 3 mps 668 mmHg 18%
    16:00 +17°C° 0 mm 3 mps 668 mmHg 20%
    17:00 +16°C° 0 mm 3 mps 668 mmHg 22%
    18:00 +16°C° 0 mm 3 mps 668 mmHg 24%
    19:00 +15°C° 0 mm 2 mps 668 mmHg 28%
    20:00 +14°C° 0 mm 2 mps 669 mmHg 32%
    21:00 +13°C° 0 mm 2 mps 669 mmHg 35%
    22:00 +12°C° 0 mm 2 mps 669 mmHg 39%
    23:00 +11°C° 0 mm 1 mps 668 mmHg 44%

    30 March, Thursday

    Time Temperature Precipitation Wind Pressure Humidity
    00:00 +10°C° 0 mm 1 mps 668 mmHg 48%
    01:00 +10°C° 0 mm 1 mps 668 mmHg 50%
    02:00 +8°C° 0 mm 0 mps 668 mmHg 52%
    03:00 +8°C° 0 mm 0 mps 667 mmHg 54%
    04:00 +7°C° 0 mm 0 mps 667 mmHg 56%
    05:00 +7°C° 0 mm 0 mps 667 mmHg 57%
    06:00 +8°C° 0 mm 1 mps 667 mmHg 58%
    07:00 +10°C° 0 mm 1 mps 668 mmHg 50%
    08:00 +13°C° 0 mm 2 mps 669 mmHg 42%
    09:00 +15°C° 0 mm 2 mps 670 mmHg 34%
    10:00 +17°C° 0 mm 3 mps 670 mmHg 28%
    11:00 +18°C° 0 mm 3 mps 670 mmHg 23%
    12:00 +19°C° 0 mm 3 mps 670 mmHg 18%
    13:00 +20°C° 0 mm 3 mps 670 mmHg 16%
    14:00 +21°C° 0 mm 3 mps 670 mmHg 13%
    15:00 +22°C° 0 mm 3 mps 669 mmHg 11%
    16:00 +20°C° 0 mm 2 mps 669 mmHg 13%
    17:00 +19°C° 0 mm 2 mps 669 mmHg 16%
    18:00 +19°C° 0 mm 1 mps 669 mmHg 18%
    19:00 +17°C° 0 mm 2 mps 669 mmHg 20%
    20:00 +16°C° 0 mm 2 mps 669 mmHg 23%
    21:00 +15°C° 0 mm 2 mps 669 mmHg 25%
    22:00 +14°C° 0 mm 3 mps 669 mmHg 29%
    23:00 +13°C° 0 mm 3 mps 669 mmHg 33%

    31 March, Friday

    Time Temperature Precipitation Wind Pressure Humidity
    00:00 +13°C° 0 mm 3 mps 669 mmHg 37%
    01:00 +12°C° 0 mm 3 mps 668 mmHg 39%
    02:00 +12°C° 0 mm 3 mps 668 mmHg 40%
    03:00 +11°C° 0 mm 3 mps 668 mmHg 42%
    04:00 +11°C° 0 mm 3 mps 668 mmHg 43%
    05:00 +10°C° 0 mm 3 mps 668 mmHg 45%
    06:00 +10°C° 0 mm 3 mps 668 mmHg 46%
    07:00 +12°C° 0 mm 3 mps 669 mmHg 40%
    08:00 +16°C° 0 mm 3 mps 670 mmHg 34%
    09:00 +18°C° 0 mm 4 mps 670 mmHg 29%
    10:00 +20°C° 0 mm 4 mps 670 mmHg 25%
    11:00 +22°C° 0 mm 5 mps 670 mmHg 21%
    12:00 +23°C° 0 mm 5 mps 670 mmHg 17%
    13:00 +25°C° 0 mm 5 mps 670 mmHg 17%
    14:00 +25°C° 0 mm 5 mps 669 mmHg 17%
    15:00 +24°C° 0 mm 6 mps 669 mmHg 17%
    16:00 +23°C° 0 mm 5 mps 668 mmHg 19%
    17:00 +22°C° 0 mm 4 mps 668 mmHg 21%
    18:00 +21°C° 0 mm 4 mps 668 mmHg 24%
    19:00 +20°C° 0 mm 4 mps 668 mmHg 28%
    20:00 +18°C° 0 mm 4 mps 668 mmHg 33%
    21:00 +17°C° 0 mm 4 mps 668 mmHg 38%
    22:00 +15°C° 0 mm 4 mps 668 mmHg 39%
    23:00 +15°C° 0 mm 4 mps 668 mmHg 41%
    Show more